Location: Cutler
(25.6150°N, 80.3110°W)
Time: 15:45:47
(UTC-04:00)

Vanguard 1 - All Passes

Search period start: 22 April 2018 00:00
Search period end: 02 May 2018 00:00
Orbit: 650 x 3833 km, 34.2° (Epoch: 22 April)

Date Brightness Start Highest point End Pass type
(mag) Time Alt. Az. Time Alt. Az. Time Alt. Az.
22 Apr - 00:44:24 10° W 00:48:35 39° N 00:53:58 10° ENE night (unlit)
22 Apr - 03:04:34 10° WNW 03:10:01 46° NNE 03:19:15 10° E visible
22 Apr - 05:23:53 10° WNW 05:31:50 81° SSW 05:47:15 10° ESE visible
22 Apr - 07:45:04 10° W 07:55:29 35° SSW 08:12:12 10° SSE daylight
22 Apr - 10:19:25 10° SW 10:21:50 10° SW 10:24:21 10° SSW daylight
22 Apr - 20:25:48 10° S 20:28:59 14° SSE 20:31:41 10° ESE visible
22 Apr - 22:44:27 10° WSW 22:49:17 83° SSE 22:53:46 10° ENE visible
23 Apr - 01:05:39 10° WNW 01:09:49 34° N 01:15:19 10° ENE night (unlit)
23 Apr - 03:25:28 10° WNW 03:31:12 54° NNE 03:41:19 10° E visible
23 Apr - 05:44:53 10° WNW 05:53:04 65° SSW 06:08:40 10° SE visible
23 Apr - 08:07:13 10° W 08:17:09 27° SSW 08:31:54 10° SSE daylight
23 Apr - 20:45:10 10° SSW 20:50:08 23° SSE 20:53:55 10° E visible
23 Apr - 23:05:34 10° WSW 23:10:14 64° NNW 23:14:46 10° ENE visible
24 Apr - 01:26:51 10° WNW 01:31:04 33° N 01:36:51 10° ENE visible
24 Apr - 03:46:18 10° WNW 03:52:20 67° NNE 04:03:19 10° ESE visible
24 Apr - 06:06:01 10° WNW 06:14:23 51° SSW 06:29:42 10° SE visible
24 Apr - 08:30:13 10° WSW 08:38:57 19° SSW 08:50:44 10° S daylight
24 Apr - 21:05:25 10° SW 21:11:11 37° SSE 21:15:25 10° E visible
24 Apr - 23:26:53 10° W 23:31:16 44° NNW 23:35:44 10° ENE visible
25 Apr - 01:47:55 10° WNW 01:52:18 35° N 01:58:35 10° ENE visible
25 Apr - 04:07:09 10° WNW 04:13:26 85° NNE 04:25:08 10° ESE visible
25 Apr - 06:27:22 10° W 06:35:48 39° SSW 06:50:19 10° SSE visible
25 Apr - 08:55:13 10° SW 09:00:56 13° SSW 09:07:41 10° S daylight
25 Apr - 19:07:24 10° S 19:11:03 13° SSE 19:14:03 10° SE daylight
25 Apr - 21:26:08 10° SW 21:32:10 59° SSE 21:36:35 10° ENE visible
25 Apr - 23:48:16 10° WNW 23:52:23 35° N 23:56:47 10° ENE night (unlit)
26 Apr - 02:08:52 10° WNW 02:13:29 41° NNE 02:20:25 10° E visible
26 Apr - 04:28:03 10° WNW 04:34:31 76° SSW 04:46:41 10° ESE visible
26 Apr - 06:49:06 10° W 06:57:20 29° SSW 07:10:24 10° SSE daylight
26 Apr - 19:26:20 10° SSW 19:32:24 21° SSE 19:36:44 10° ESE daylight
26 Apr - 21:47:12 10° WSW 21:53:07 89° NNW 21:57:33 10° ENE visible
27 Apr - 00:09:38 10° WNW 00:13:35 30° N 00:17:57 10° ENE night (unlit)
27 Apr - 02:29:44 10° WNW 02:34:36 50° NNE 02:42:16 10° E visible
27 Apr - 04:49:03 10° WNW 04:55:40 57° SSW 05:07:55 10° SE visible
27 Apr - 07:11:29 10° WSW 07:18:59 21° SSW 07:29:46 10° SSE daylight
27 Apr - 19:46:20 10° SSW 19:53:38 32° SSE 19:58:26 10° E daylight
27 Apr - 22:08:31 10° WSW 22:14:05 60° NNW 22:18:27 10° ENE visible
28 Apr - 00:30:55 10° WNW 00:34:48 29° N 00:39:18 10° ENE night (unlit)
28 Apr - 02:50:34 10° WNW 02:55:38 66° NNE 03:04:02 10° ESE visible
28 Apr - 05:10:13 10° W 05:16:56 42° SSW 05:28:45 10° SE visible
28 Apr - 07:35:10 10° WSW 07:40:47 14° SSW 07:47:50 10° S daylight
28 Apr - 17:48:04 10° S 17:52:38 13° SSE 17:56:20 10° SE daylight
28 Apr - 20:06:54 10° SW 20:14:47 47° SSE 20:19:42 10° E visible
28 Apr - 22:30:01 10° W 22:35:06 43° NNW 22:39:19 10° NE visible
29 Apr - 00:52:02 10° NW 00:56:00 31° N 01:00:50 10° ENE night (unlit)
29 Apr - 03:11:23 10° WNW 03:16:39 88° NNE 03:25:38 10° ESE visible
29 Apr - 05:31:41 10° W 05:38:18 31° SSW 05:49:08 10° SSE visible
29 Apr - 18:06:34 10° SSW 18:14:10 20° SSE 18:19:27 10° ESE daylight
29 Apr - 20:27:52 10° SW 20:35:49 69° SSE 20:40:45 10° ENE visible
29 Apr - 22:51:34 10° WNW 22:56:12 34° NNW 23:00:15 10° NE visible
30 Apr - 01:13:00 10° NW 01:17:09 37° NNE 01:22:28 10° E night (unlit)
30 Apr - 03:32:18 10° WNW 03:37:41 68° SSW 03:46:57 10° SE visible
30 Apr - 05:53:39 10° WSW 05:59:47 22° SSW 06:08:53 10° SSE visible
30 Apr - 18:26:17 10° SSW 18:35:35 29° SSE 18:41:25 10° E daylight
30 Apr - 20:49:10 10° WSW 20:56:49 83° NNW 21:01:39 10° ENE visible
30 Apr - 23:13:06 10° WNW 23:17:22 29° N 23:21:18 10° ENE visible
01 May - 01:33:53 10° WNW 01:38:14 48° NNE 01:44:07 10° E night (unlit)
01 May - 03:53:21 10° W 03:58:47 48° SSW 04:07:58 10° SE visible
01 May - 06:16:37 10° WSW 06:21:24 15° SSW 06:27:34 10° S visible
01 May - 16:28:09 10° S 16:33:35 13° SSE 16:38:02 10° SE daylight
01 May - 18:46:39 10° SW 18:56:54 41° SSE 19:02:53 10° E daylight
01 May - 21:10:41 10° WSW 21:17:49 60° NNW 21:22:29 10° ENE visible
01 May - 23:34:30 10° WNW 23:38:35 28° N 23:42:31 10° ENE visible
